User: anonymous   Login
Location: Sandbanks Provincial Park
(47.6073°N, 57.6428°W)
Time: 21:33:40
(UTC-02:-30)
Language:

Cosmos 2034 Rocket - Orbit

View from above orbital plane
View from above orbital plane
View from above satellite
View from above satellite

Ground track
Ground track

The orbit data is extracted from the following two-line orbital elements,

1 20150U 89059B   16148.15293568  .00000005  00000-0 -99869-5 0  9990
2 20150  82.9405  20.4731 0027650 281.1346 189.2134 13.75621748347310
Epoch (UTC): 27 May 2016 03:40:13
Eccentricity: 0.0027650
inclination: 82.9405°
perigee height: 959 km
apogee height: 1000 km
right ascension of ascending node: 20.4731°
argument of perigee: 281.1346°
revolutions per day: 13.75621748
mean anomaly at epoch: 189.2134°
orbit number at epoch: 34731

The dashed part of the orbit path shows where the satellite is in the earth's shadow,  

DLR